Regional Weather Roundup
Issued by NWS Little Rock, AR

Home | Current Version | Previous Version | Graphics & Text | Print | Product List | Glossary On
Versions: 1 2 3 4 5 6 7 8 9 10 11 12 13 14 15 16 17 18 19 20 21 22 23 24 25 26 27 28 29 30 31 32 33 34 35 36 37 38 39 40 41 42 43 44 45 46 47 48 49 50
000
ASUS44 KLZK 310505
RWRLZK

WEATHER ROUNDUP FOR ARKANSAS
NATIONAL WEATHER SERVICE LITTLE ROCK AR
1100 PM CST FRI JAN 30 2015

NOTE: "FAIR" INDICATES FEW OR NO CLOUDS BELOW 12,000 FEET WITH NO
SIGNIFICANT WEATHER AND/OR OBSTRUCTIONS TO VISIBILITY.

ARZ001-003-010-029-310600-
NORTHWEST ARKANSAS

CITY           SKY/WX    TMP DP  RH WIND       PRES   REMARKS
FAYETTEVILLE   CLOUDY    37  28  70 CALM      30.36F
FORT SMITH     CLOUDY    42  29  59 NE5       30.38F
HARRISON       CLOUDY    37  23  56 SE6       30.36F
BENTONVILLE    CLOUDY    41  21  45 S5        30.36S
ROGERS         CLOUDY    41  21  44 SE3       30.35F
SILOAM SPGS    CLOUDY   N/A N/A N/A CALM      30.36F
HIGHFILL       CLOUDY    40  24  53 S3        30.35F
$$

ARZ004-005-016-310600-
NORTH CENTRAL ARKANSAS

CITY           SKY/WX    TMP DP  RH WIND       PRES   REMARKS
BATESVILLE     CLOUDY    37  25  60 CALM      30.43S
FLIPPIN        CLOUDY    34  23  64 CALM      30.38F
MTN HOME       CLOUDY    38  19  46 S5        30.37F
$$

ARZ040-041-310600-
WEST CENTRAL ARKANSAS

CITY           SKY/WX    TMP DP  RH WIND       PRES   REMARKS
MENA           CLOUDY    43  32  65 CALM      30.38S
MOUNT IDA      CLOUDY    40  32  73 CALM      30.37F
$$

ARZ009-017-025-026-028-310600-
NORTHEAST ARKANSAS

CITY           SKY/WX    TMP DP  RH WIND       PRES   REMARKS
CORNING        FAIR      32  28  86 CALM      30.45S FOG
JONESBORO      CLOUDY    31  29  92 CALM      30.44S
NEWPORT        CLOUDY    35  30  82 CALM      30.45F
WALNUT RIDGE   MOCLDY    32  27  80 CALM      30.44F
BLYTHEVILLE    CLEAR     30  26  85 N5        30.45S WCI  25
$$

ARZ022-023-033-042-044-310600-
CENTRAL ARKANSAS

CITY           SKY/WX    TMP DP  RH WIND       PRES   REMARKS
LITTLE ROCK    CLOUDY    38  27  64 CALM      30.44F
N LITTLE ROCK  CLOUDY    40  29  66 E5        30.44F
JACKSONVILLE   CLOUDY    36  26  67 CALM      30.43F
SEARCY         MOCLDY    37  29  72 NE3       30.45F
HOT SPRINGS    CLOUDY    42  27  55 SE3       30.41F
RUSSELLVILLE   CLOUDY    42  28  57 CALM      30.40F
CLINTON        FAIR      36  28  75 CALM      30.43F
$$

ARZ036-310600-
EAST ARKANSAS

CITY           SKY/WX    TMP DP  RH WIND       PRES   REMARKS
WEST MEMPHIS   PTCLDY    35  28  75 N5        30.43S WCI  31
$$

ARZ050-053-066-070-073-310600-
SOUTHWEST ARKANSAS

CITY           SKY/WX    TMP DP  RH WIND       PRES   REMARKS
ARKADELPHIA    FAIR      38  31  76 CALM      30.42F
CAMDEN         PTCLDY    32  28  86 CALM      30.42F
TEXARKANA      MOCLDY    42  31  64 E5        30.38F
EL DORADO      PTCLDY    33  29  85 CALM      30.40F
DE QUEEN       MOCLDY    40  32  73 NE5       30.37F
$$

ARZ056-057-069-310600-
SOUTHEAST ARKANSAS

CITY           SKY/WX    TMP DP  RH WIND       PRES   REMARKS
PINE BLUFF     MOCLDY    37  28  70 NE6       30.43F
STUTTGART      MOCLDY    37  28  70 NE3       30.44S
MONTICELLO     CLEAR     37  29  72 NE3       30.41F

$$




USA.gov is the U.S. government's official web portal to all federal, state and local government web resources and services.